Location: Treviso
(45.6669°N, 12.2430°E)
Time: 20:51:38
(UTC+02:00)

ISS - Pass Details

Date: 28 May 2017
Orbit: 400 x 408 km, 51.6° (Epoch: 20 July)

Event Time Altitude Azimuth Distance (km) Brightness Sun altitude
Rises 01:30:27 0° 298° (WNW) 2,343 0.3 -22.7°
Reaches altitude 10° 01:32:37 10° 305° (NW) 1,478 -0.7 -22.6°
Maximum altitude 01:35:48 43° 18° (NNE) 589 -2.6 -22.6°
Enters shadow 01:36:44 33° 63° (ENE) 712 -2.4 -22.6°
